This demonstration page uses our WeatherBlox Daily Observations layout. Learn more.

Left ArrowRight Arrow

34.02893, -84.19858

Hourly Observations for February 6, 2020

Temp ( °F °C ) Dew Point ( °F °C ) Humidity (%) Winds ( mph kmh ) Pressure ( in mb ) Visibility ( mi km ) Precip ( " mm )
12:14 am 00:14 Cloudy with Nearby Thunderstorms 61 16.1 60 15.6 97 97 VRB 7 11 29.70 1006 4 6 0.07 1.78
12:29 am 00:29 Cloudy with Rain 61 16.1 60 15.6 97 97 SSE 6 9 29.69 1005 4 6 0.10 2.54
12:53 am 00:53 Cloudy with Light Rain 61 16.1 60 15.6 97 97 S 7 11 29.67 1005 7 11 0.16 4.06
1:53 am 01:53 Cloudy with Light Rain 61 16.1 60 15.6 97 97 SSE 12 19 29.65 1004 9 14 0.09 2.29
2:53 am 02:53 Cloudy with Rain 62 16.7 61 16.1 96 96 VRB 7 11 29.61 1003 5 8 0.03 0.76
3:53 am 03:53 Cloudy 62 16.7 61 16.1 96 96 SSE 7 11 29.58 1002 10 16 0.02 0.51
4:09 am 04:09 Cloudy with Nearby Thunderstorms 62 16.7 62 16.7 100 100 S 7 11 29.58 1002 10 16 0.01 0.25
4:25 am 04:25 Cloudy with Light Rain 62 16.7 62 16.7 100 100 SSE 5 7 29.56 1001 4 6 0.04 1.02
4:32 am 04:32 Cloudy with Light Rain 62 16.7 62 16.7 100 100 SSE 5 7 29.56 1001 5 8 0.05 1.27
4:53 am 04:53 Cloudy with Rain 62 16.7 62 16.7 100 100 SSE 5 7 29.53 1000 2 3 0.14 3.56
4:57 am 04:57 Cloudy with Light Rain 62 16.7 62 16.7 100 100 S 7 11 29.55 1001 3 5 0.00 0.00
5:05 am 05:05 Cloudy with Nearby Thunderstorms 62 16.7 62 16.7 100 100 S 7 11 29.55 1001 4 6 0.02 0.51
5:20 am 05:20 Cloudy with Light Rain 62 16.7 62 16.7 100 100 SSE 7 11 29.54 1000 7 11 0.07 1.78
5:53 am 05:53 Cloudy 63 17.2 63 17.2 100 100 S 8 13 29.51 999 10 16 0.08 2.03
6:29 am 06:29 Cloudy 64 17.8 64 17.8 100 100 S 5 7 29.50 999 10 16 0.00 0.00
6:53 am 06:53 Cloudy with Nearby Thunderstorms 63 17.2 63 17.2 100 100 Calm 29.47 998 5 8 0.00 0.00
7:04 am 07:04 Cloudy with Nearby Thunderstorms 63 17.2 63 17.2 100 100 VRB 3 6 29.46 998 2 3 0.00 0.00
7:06 am 07:06 Cloudy with Mist and Fog 64 17.8 63 17.2 96 96 VRB 3 6 29.46 998 2 3 0.00 0.00
7:17 am 07:17 Cloudy with Light Rain 64 17.8 64 17.8 100 100 SSE 5 7 29.46 998 7 11 0.00 0.00
7:37 am 07:37 Cloudy with Light Rain 65 18.3 64 17.8 97 97 SSE 15 24 29.44 997 2 3 0.04 1.02
7:53 am 07:53 Cloudy with Heavy Rain 66 18.9 65 18.3 96 96 WSW 16 26 29.46 998 2 3 0.67 17.02
8:00 am 08:00 Cloudy with Light Rain 66 18.9 66 18.9 100 100 SW 9 15 29.45 997 2 3 0.01 0.25
8:41 am 08:41 Cloudy with Rain 68 20 66 18.9 93 93 SW 13 20 29.46 998 4 6 0.04 1.02
8:53 am 08:53 Mostly Cloudy 68 20 66 18.9 93 93 SW 13 20 29.44 997 10 16 0.04 1.02
9:53 am 09:53 Cloudy with Nearby Thunderstorms 68 20 64 17.8 87 87 W 26 43 29.50 999 8 13 0.01 0.25
9:59 am 09:59 Cloudy with Nearby Thunderstorms 64 17.8 60 15.6 87 87 W 22 35 29.51 999 2 3 0.06 1.52
10:15 am 10:15 Cloudy with Nearby Thunderstorms 62 16.7 60 15.6 93 93 WSW 17 28 29.50 999 1 1 0.32 8.13
10:22 am 10:22 Cloudy with Nearby Thunderstorms 62 16.7 60 15.6 93 93 WSW 10 17 29.49 999 2 3 0.32 8.13
10:24 am 10:24 Cloudy with Light Rain 62 16.7 60 15.6 93 93 WSW 9 15 29.49 999 4 6 0.33 8.38
10:47 am 10:47 Cloudy with Heavy Rain 63 17 61 16 94 94 SW 9 15 29.50 999 2 3 0.39 9.91
10:53 am 10:53 Cloudy with Rain 62 16.7 61 16.1 96 96 S 9 15 29.48 998 2 3 0.40 10.16
11:00 am 11:00 Cloudy with Rain 62 16.7 61 16.1 96 96 S 8 13 29.50 999 5 8 0.04 1.02
11:38 am 11:38 Cloudy with Nearby Thunderstorms 62 16.7 61 16.1 96 96 SSW 9 15 29.49 999 5 8 0.20 5.08
11:53 am 11:53 Cloudy with Light Rain 62 16.7 61 16.1 96 96 SW 7 11 29.47 998 5 8 0.22 5.59
12:09 pm 12:09 Cloudy with Thunderstorms 63 17.2 60 15.6 90 90 WSW 13 20 29.46 998 4 6 0.03 0.76
12:24 pm 12:24 Cloudy with Nearby Thunderstorms 62 16.7 61 16.1 96 96 SW 12 19 29.48 998 5 8 0.05 1.27
12:28 pm 12:28 Cloudy with Nearby Thunderstorms 62 16.7 61 16.1 96 96 W 9 15 29.46 998 3 5 0.07 1.78
12:34 pm 12:34 Cloudy with Rain 62 16.7 61 16.1 96 96 W 12 19 29.46 998 10 16 0.10 2.54
12:53 pm 12:53 Cloudy with Thunderstorms 62 16.7 61 16.1 96 96 W 10 17 29.45 997 10 16 0.16 4.06
12:56 pm 12:56 Cloudy with Rain 62 16.7 60 15.6 93 93 WSW 10 17 29.46 998 3 4 0.01 0.25
1:03 pm 13:03 Cloudy with Rain 62 16.7 60 15.6 93 93 W 9 15 29.45 997 3 5 0.04 1.02
1:16 pm 13:16 Cloudy with Rain 62 16.7 60 15.6 93 93 WSW 10 17 29.44 997 3 4 0.09 2.29
1:28 pm 13:28 Cloudy with Rain 62 16.7 60 15.6 93 93 WSW 13 20 29.44 997 4 6 0.12 3.05
1:53 pm 13:53 Cloudy with Light Rain 62 16.7 60 15.6 93 93 SW 10 17 29.41 996 9 14 0.13 3.30
2:07 pm 14:07 Cloudy with Light Rain 61 16.1 60 15.6 97 97 SSW 7 11 29.43 997 6 10 0.03 0.76
2:44 pm 14:44 Cloudy with Rain 61 16.1 60 15.6 97 97 SW 7 11 29.39 995 2 3 0.14 3.56
2:53 pm 14:53 Cloudy with Rain 61 16.1 59 15 93 93 WSW 7 11 29.38 995 3 5 0.17 4.32
3:53 pm 15:53 Cloudy with Light Rain 60 15.6 59 15 96 96 S 7 11 29.36 994 4 6 0.12 3.05
4:00 pm 16:00 Cloudy with Light Rain 60 15.6 59 15 96 96 S 7 11 29.37 995 7 11 0.01 0.25
4:11 pm 16:11 Cloudy with Light Rain 60 15.6 59 15 96 96 S 7 11 29.37 995 7 11 0.02 0.51
4:53 pm 16:53 Cloudy with Light Rain 60 15.6 59 15 96 96 S 9 15 29.38 995 7 11 0.05 1.27
5:23 pm 17:23 Cloudy with Heavy Rain 59 15 58 14.4 96 96 SW 8 13 29.42 996 2 3 0.05 1.27
5:31 pm 17:31 Cloudy with Light Rain 59 15 58 14.4 96 96 SSE 6 9 29.38 995 3 5 0.06 1.52
5:53 pm 17:53 Cloudy with Light Rain 59 15 58 14.4 96 96 SSE 7 11 29.35 994 9 14 0.07 1.78
6:00 pm 18:00 Cloudy 59 15 58 14.4 96 96 VRB 5 7 29.36 994 10 16 0.00 0.00
6:11 pm 18:11 Mostly Cloudy 59 15 58 14.4 96 96 S 6 9 29.37 995 10 16 0.00 0.00
6:28 pm 18:28 Mostly Cloudy 59 15 58 14.4 96 96 SW 7 11 29.39 995 10 16 0.00 0.00
6:53 pm 18:53 Cloudy with Light Rain 59 15 58 14.4 96 96 SSW 6 9 29.36 994 10 16 0.00 0.00
7:53 pm 19:53 Cloudy 58 14.4 57 13.9 97 97 WSW 7 11 29.34 994 10 16 0.01 0.25
8:22 pm 20:22 Cloudy 58 14.4 57 13.9 97 97 WSW 6 9 29.35 994 10 16 0.00 0.00
8:53 pm 20:53 Cloudy with Light Rain 57 13.9 55 12.8 93 93 WNW 15 24 29.36 994 9 14 0.00 0.00
9:05 pm 21:05 Cloudy with Light Rain 54 12.2 53 11.7 97 97 WNW 14 22 29.39 995 6 10 0.01 0.25
9:31 pm 21:31 Cloudy with Light Rain 52 11.1 51 10.6 97 97 WNW 20 31 29.42 996 3 4 0.02 0.51
9:41 pm 21:41 Cloudy with Light Rain 51 10.6 50 10 96 96 W 13 20 29.42 996 4 6 0.02 0.51
9:53 pm 21:53 Cloudy with Mist and Fog 51 10.6 50 10 96 96 WNW 12 19 29.39 995 6 10 0.02 0.51
10:53 pm 22:53 Cloudy 50 10 49 9.4 96 96 W 10 17 29.37 995 10 16 0.00 0.00
11:31 pm 23:31 Cloudy 49 9.4 47 8.3 93 93 W 9 15 29.40 996 10 16 0.00 0.00
11:53 pm 23:53 Cloudy 49 9.4 47 8.3 93 93 W 13 20 29.39 995 10 16 0.00 0.00

Powered by AerisWeather